Regional Weather Roundup
Issued by NWS San Angelo, TX

Home | Current Version | Previous Version | Text Only | Print | Product List | Glossary On
Versions: 1 2 3 4 5 6 7 8 9 10 11 12 13 14 15 16 17 18 19 20 21 22 23 24 25 26 27 28 29 30 31 32 33 34 35 36 37 38 39 40 41 42 43 44 45 46 47 48 49 50
000
ASUS44 KSJT 301302
RWRSJT
WEST CENTRAL TEXAS REGIONAL WEATHER ROUNDUP
NATIONAL WEATHER SERVICE SAN ANGELO TX
800 AM CDT MON MAY 30 2016

NOTE: "FAIR" INDICATES FEW OR NO CLOUDS BELOW 12,000 FEET WITH NO
SIGNIFICANT WEATHER AND/OR OBSTRUCTIONS TO VISIBILITY.

TXZ049-054-064>066-071>073-076>078-098-099-113-114-127-128-139-140-
154-155-168>170-301400
...LOCATIONS ACROSS WEST CENTRAL TEXAS...

CITY           SKY/WX    TMP DP  RH WIND       PRES   REMARKS
SAN ANGELO     CLOUDY    66  64  93 CALM      30.06R
ABILENE        MOSUNNY   64  62  93 S8        30.04R
DYESS AFB      SUNNY     65  63  92 S7        30.04R
JUNCTION       CLOUDY    63  62  97 E6        30.07S
SWEETWATER     NOT AVBL
BROWNWOOD      CLOUDY    64  63  94 S8        30.05R
COLEMAN        PTSUNNY   64  62  91 S10G17    30.05R
SONORA         NOT AVBL
OZONA          NOT AVBL
BRADY          NOT AVBL
$$

TEXAS PANHANDLE/OKLAHOMA PANHANDLE

CITY           SKY/WX    TMP DP  RH WIND       PRES   REMARKS
AMARILLO       SUNNY     55  52  89 W3        30.13F
BORGER         SUNNY     57  54  89 SW5       30.11S
CANADIAN       SUNNY     55  54  98 W3        30.09S
DALHART        CLOUDY    55  52  89 S5        30.13S
DUMAS          SUNNY     56  53  88 CALM      30.11S
GUYMON         NOT AVBL
HEREFORD       MOSUNNY   53  52  97 SE7       30.15F
PAMPA          NOT AVBL
PERRYTON       NOT AVBL
$$

SOUTHERN PANHANDLE/SOUTH PLAINS/ROLLING PLAINS

CITY           SKY/WX    TMP DP  RH WIND       PRES   REMARKS
LUBBOCK        MOSUNNY   57  54  89 N8        30.11R
SNYDER           N/A     59  58  97 CALM      30.08R
CHILDRESS      SUNNY     61  57  87 N8        30.08R
SEMINOLE       NOT AVBL
$$

PERMIAN BASIN

CITY           SKY/WX    TMP DP  RH WIND       PRES   REMARKS
MIDLAND        CLOUDY    62  56  80 E5        30.07R
ODESSA         CLOUDY    61  55  81 NE8       30.09R
WINK           NOT AVBL
$$

FAR WEST/SOUTHWEST MOUNTAINS/TRANS PECOS

CITY           SKY/WX    TMP DP  RH WIND       PRES   REMARKS
ALPINE         NOT AVBL
DRYDEN           N/A     73  70  90 E8        30.02R
EL PASO        MOSUNNY   73  42  32 SE3       30.05S THUNDER
FORT STOCKTON  NOT AVBL
GUADALUPE PASS NOT AVBL
MARFA          CLOUDY    61  57  87 N3        30.17R
PECOS          NOT AVBL
$$

DALLAS/FORT WORTH METROPLEX

CITY           SKY/WX    TMP DP  RH WIND       PRES   REMARKS
DFW AIRPORT    CLOUDY    70  65  84 N9        30.02R
FTW MEACHAM    PTSUNNY   69  64  84 N12       30.02R
DAL-EXECUTIVE  CLOUDY    69  62  78 NW12      30.02R
GRAND PRAIRIE  SUNNY     70  63  78 N10       30.04R
ADDISON        PTSUNNY   68  68 100 N12       30.03R
MESQUITE       MOSUNNY   68  64  88 NW5       30.03R
LANCASTER      CLOUDY    72  57  57 NW8       30.02R
$$

NORTH CENTRAL TEXAS

CITY           SKY/WX    TMP DP  RH WIND       PRES   REMARKS
SHRMAN/DENISON NOT AVBL
GAINESVILLE    NOT AVBL
BRIDGEPORT     CLOUDY    67  67 100 CALM      30.06S
DENTON         PTSUNNY   68  67  96 NE7       30.04R
WAXAHACHIE     CLOUDY    71  61  70 N8        30.03R
GRANBURY       NOT AVBL
$$

WESTERN NORTH TEXAS

CITY           SKY/WX    TMP DP  RH WIND       PRES   REMARKS
WICHITA FALLS  CLOUDY    66  64  93 MISG      30.04R
VERNON         SUNNY     65  60  84 NE3       30.08R
BRECKENRIDGE   NOT AVBL
COMANCHE       CLOUDY    64  64 100 SW10      30.02R
$$

CENTRAL AND SOUTH CENTRAL TEXAS

CITY           SKY/WX    TMP DP  RH WIND       PRES   REMARKS
AUSTIN/BERGSTM TSTM      67  65  93 NW3       30.08R
WACO           CLOUDY    76  56  49 S21G28    29.88R
HILLSBORO      CLOUDY    66  63  90 NE5       29.96R
TEMPLE         LGT RAIN  68  67  96 S20       29.97R
KILLEEN-GRAY   LGT RAIN  66  64  94 S16       30.00S FOG
FORT HOOD      LGT RAIN  66  65  97 S17       29.96F FOG
GEORGETOWN     LGT RAIN  66  63  88 SW10      30.07R
LAGO VISTA     TSTM      66  64  96 CALM      30.09F
SAN MARCOS     CLOUDY    64  63  94 NW12G18   30.08S
NEW BRAUNFELS  TSTM      66  63  90 N7        30.08R FOG
RANDOLPH AFB   TSTM      64  64 100 NW5       30.10R
SAN ANTONIO    TSTM      65  63  93 NE3       30.10F
STINSON        HVY RAIN  66  62  87 CALM      30.11S FOG
PLEASANTON     NOT AVBL
LA GRANGE      NOT AVBL
GIDDINGS       NOT AVBL
$$

EAST TEXAS

CITY           SKY/WX    TMP DP  RH WIND       PRES   REMARKS
PARIS          CLOUDY    66  57  72 N8        30.04F
CLARKSVILLE    NOT AVBL
TYLER          LGT RAIN  69  65  86 E3        30.03F
LONGVIEW       CLOUDY    73  70  90 CALM      30.04R
PALESTINE      CLOUDY    72  72 100 SE6       30.03S
NACOGDOCHES    CLOUDY    70  70 100 CALM      30.05S
$$

TEXAS HILL COUNTRY AND EDWARDS PLATEAU

CITY           SKY/WX    TMP DP  RH WIND       PRES   REMARKS
LLANO          NOT AVBL
HORSESHOE BAY  RAIN      64  62  93 S8        30.07F
KERRVILLE      TSTM      61  60  96 W3        30.15R
FREDERICKSBRG  NOT AVBL
ROCKSPRINGS    NOT AVBL
HONDO          LGT RAIN  64  63  96 NE12      30.17R
UVALDE         CLOUDY    73  72  94 E15       30.09R
DEL RIO        CLOUDY    77  72  84 E14       30.01R
$$

SOUTHEAST TEXAS

CITY           SKY/WX    TMP DP  RH WIND       PRES   REMARKS
COLLEGE STN    CLOUDY    72  72 100 CALM      30.05F FOG
CALDWELL       NOT AVBL
CROCKETT       NOT AVBL
BRENHAM        CLOUDY    74  74  99 CALM      30.07S FOG
HUNTSVILLE     CLOUDY    73  71  93 CALM      30.07R
CONROE         PTSUNNY   70  70 100 CALM      30.06R FOG
HOUSTON BUSH   CLOUDY    75  73  93 NW5       30.06R
HOUSTON HOBBY  CLOUDY    76  73  91 CALM      30.03R
PERLAND        PTSUNNY   76  73  91 NW3       30.05R
WHARTON        NOT AVBL
$$

THE UPPER TEXAS COAST

CITY           SKY/WX    TMP DP  RH WIND       PRES   REMARKS
ORANGE         CLOUDY    73  71  93 CALM      30.04S
PORT ARTHUR    CLOUDY    76  74  93 CALM      30.02S
GALVESTON      MOSUNNY   78  73  84 CALM      30.03R
ANGLETON       MOSUNNY   76  73  91 N3        30.03R
BAY CITY       MOSUNNY   74  74 100 CALM      30.03S FOG
$$

TEXAS COASTAL BEND, RIO GRANDE PLAINS DEEP SOUTH TEXAS

CITY           SKY/WX    TMP DP  RH WIND       PRES   REMARKS
VICTORIA       MOSUNNY   74  72  93 NE5       30.03S FOG
BEEVILLE       CLOUDY    70  70 100 N3        30.04R
ROCKPORT       MOSUNNY   81  73  76 SE7       30.01R
PORT ARANSAS   NOT AVBL
PORT LAVACA    CLOUDY    76  75  96 CALM      30.03S
CORPUS CHRISTI MOSUNNY   79  75  87 CALM      30.01R
KINGSVILLE NAS SUNNY     77  77 100 CALM      30.01R
COTULLA        CLOUDY    77  73  87 E9        30.05R
LAREDO         CLOUDY    77  74  90 NE8       30.02R
BROWNSVILLE    SUNNY     80  76  87 E5        29.98R
PORT ISABEL    SUNNY     82  77  84 E10       29.97R
HEBBRONVILLE   NOT AVBL
MCALLEN        SUNNY     80  76  87 E8        29.98R
WESLACO        NOT AVBL
FALFURRIAS     PTSUNNY   77  74  92 E6        30.00R
EDINBURG       NOT AVBL
$$



USA.gov is the U.S. government's official web portal to all federal, state and local government web resources and services.